Zurück zum Katalog

GONETS M 04

AktivKommunikationPO
NORAD 38736·PAYLOAD·🇷🇺 Russia

Gestartet Jul 28, 2012 von Plesetsk Cosmodrome

Loading…

Nächste Überflüge (nächste 24 Stunden)

TLE

AktuellSource: Space-Track

Epoche: Sep 14, 2026, 13:07 UTC

1 38736U 12041D   26257.54690486 -.00000022  00000-0 -22439-3 0  9998
2 38736  82.4844  14.9627 0024890 215.9507 143.9900 12.43906653634064

Verfolge GONETS M 04 in Echtzeit mit AllMySat

Download on the App Store